Погода в Мугартах

Россия / Республика Дагестан     41°59′50″N   48°09′41″E
темп.,
°C
ветер,
м/с
пор.,
м/с
влажн.,
%
обл.,
%
осадки,
мм/ч
давл.,
гПа
погр.,
м
15 апреля, чт
чт1500:00+10ю338461 0.0 101620
03:00+9ю227888 0.0 101616
06:00+10ю34740 0.0 101771
09:00+16ююв45550 0.0 1017804
12:00+17вюв65508 0.0 10171096
15:00+16вюв555378 0.0 1017885
18:00+14ююв5660100 0.0 1018301
21:00+12ю3368100 0.0 101841
16 апреля, пт
пт1600:00+12ююз226390 0.0 101811
03:00+12з1156100 0.0 101811
06:00+13сз33556 0.0 101919
09:00+16с32445 0.0 1020514
12:00+17всв33434 0.0 1019625
15:00+17вюв3445100 0.0 1019587
18:00+13ююв236214 0.1 1019152
21:00+12ююз336725 0.1 102037
17 апреля, сб
сб1700:00+12ю22681 0.0 101918
03:00+11ю22683 0.0 101812
06:00+12ююв2264100 0.0 101921
09:00+16в2250100 0.0 1018337
12:00+17ссв2248100 0.0 1017485
15:00+18с5548100 0.0 1017541
18:00+14ссз5758100 0.0 1019264
21:00+14сз455891 0.0 102187
18 апреля, вс
вс1800:00+14сз4558100 0.0 102089
03:00+13сз2263100 0.0 102012
06:00+12ссз3477100 0.0 1021197
09:00+14ссз3469100 0.0 1020540
12:00+14ссв2266100 0.1 1017529
15:00+15св2165100 0.7 1016469
18:00+14всв11650 0.2 1015130
21:00+13сз3465100 0.3 101756
19 апреля, пн
пн1900:00+12з2275100 0.1 101615
03:00+12ссз1177100 0.1 101611
06:00+13сз2271100 0.0 101622
09:00+17в21565 0.0 1016374
12:00+19в32495 0.0 1015586
15:00+17вюв3453100 0.0 1014413
18:00+15юв346299 0.0 1013162
21:00+14ю236795 0.0 101441